"2022-05-25 00:01:00",2951685,2.867333,179.8008,2.343069,0.08947751,3.04,0,1.354667,148.1337,2.704506,0.09541954,1.51,0,-999,0,8.63,96,8.7,8.81,0.2,0,0,8.35,13.23,0.2,101.2673,3.286,3.289,3.285,100,0,0,0,49.37,169.9,169.9
"2022-05-25 00:02:00",2951686,2.797333,178.8669,1.820721,0.06223255,2.91,0,1.374667,145.8022,3.951482,0.09294202,1.51,0,-999,0,8.66,96.4,8.7,8.81,0.2,0,0,8.35,13.24,0.2,101.2682,3.286,3.288,3.285,100,0,0,0,49.37,169.8,169.9
"2022-05-25 00:03:00",2951687,2.532,172.3314,3.237359,0.163878,2.89,0,1.317333,142.9997,2.682935,0.1124554,1.52,0,-999,0,8.66,96.4,8.7,8.81,0.2,0,0,8.35,13.25,0.2,101.2677,3.287,3.288,3.286,100,0,0,0,49.37,169.9,169.9
"2022-05-25 00:04:00",2951688,2.659333,172.6009,3.790257,0.1803872,3.09,0,1.310667,142.9318,3.585592,0.08872931,1.5,0,-999,0,8.63,96.2,8.7,8.81,0.2,0,0,8.35,13.23,0.2,101.2655,3.286,3.288,3.284,100,0,0,0,49.37,169.9,169.9
"2022-05-25 00:05:00",2951689,2.568667,171.3342,3.299197,0.2106455,2.97,0,1.435333,140.6001,2.0911,0.1497939,1.64,0,-999,0,8.6,96.2,8.65,8.78,0.2,0,0,8.35,13.23,0.2,101.2684,3.29,3.291,3.288,100,0,0,0,49.37,169.8,169.9
"2022-05-25 00:06:00",2951690,2.689334,173.9336,4.417523,0.2243648,3.19,0,1.455333,142.5315,3.262403,0.1550856,1.72,0,-999,0,8.59,96,8.61,8.73,0.2,0,0,8.35,13.25,0.2,101.2678,3.291,3.292,3.289,100,0,0,0,49.37,169.9,169.9
"2022-05-25 00:07:00",2951691,2.456,170.466,3.460766,0.1483599,2.7,0,1.379333,141.4663,2.848235,0.1023371,1.63,0,-999,0,8.56,95.7,8.61,8.72,0.2,0,0,8.35,13.23,0.2,101.2715,3.289,3.292,3.288,100,0,0,0,49.37,169.9,169.9
"2022-05-25 00:08:00",2951692,2.407333,170.3999,2.62762,0.1177266,2.65,0,1.550667,143.3336,2.936074,0.139927,1.83,0,-999,0,8.5,95.6,8.56,8.69,0.2,0,0,8.35,13.23,0.2,101.2654,3.29,3.29,3.288,100,0,0,0,49.37,169.8,169.9
"2022-05-25 00:09:00",2951693,2.433334,175.1995,3.543149,0.1288755,2.68,0,1.435333,145.4664,3.403062,0.08815642,1.56,0,-999,0,8.5,95.6,8.54,8.67,0.2,0,0,8.35,13.24,0.2,101.269,3.29,3.291,3.288,100,0,0,0,49.37,169.9,169.9
"2022-05-25 00:10:00",2951694,2.478667,175.8669,2.061101,0.07553069,2.58,0,1.380667,145.5293,4.094571,0.08543743,1.52,0,-999,0,8.44,95.6,8.48,8.63,0.2,0,0,8.35,13.23,0.2,101.267,3.288,3.29,3.286,100,0,0,0,49.37,169.8,169.9
"2022-05-25 00:11:00",2951695,2.556,175.9999,1.999855,0.1205985,2.78,0,1.416667,147.6661,2.889707,0.121856,1.68,0,-999,0,8.39,95.6,8.42,8.55,0.2,0,0,8.35,13.24,0.2,101.2696,3.288,3.29,3.286,100,0,0,0,49.37,169.9,169.8
"2022-05-25 00:12:00",2951696,2.702,179.4664,3.666658,0.1858744,3.02,0,1.450667,148.6654,3.994183,0.0699968,1.56,0,-999,0,8.3,95.6,8.37,8.5,0.2,0,0,8.34,13.25,0.2,101.269,3.288,3.289,3.287,100,0,0,0,49.37,169.8,169.8
"2022-05-25 00:13:00",2951697,2.689334,183.0001,2.190682,0.1182352,2.94,0,1.294667,153.5336,4.192878,0.08436955,1.54,0,-999,0,8.3,95.3,8.38,8.5,0.2,0,0,8.33,13.23,0.2,101.2654,3.288,3.288,3.286,100,0,0,0,49.37,169.8,169.8
"2022-05-25 00:14:00",2951698,2.662,180.601,2.652745,0.1126765,2.86,0,1.286,152.5998,3.647017,0.09707727,1.42,0,-999,0,8.31,95.1,8.38,8.5,0.2,0,0,8.33,13.23,0.2,101.2696,3.286,3.288,3.283,100,0,0,0,49.37,169.8,169.8
"2022-05-25 00:15:00",2951699,2.644,182.0665,2.112161,0.1051856,2.84,0,1.309333,153.1333,3.630433,0.07523001,1.45,0,-999,0,8.39,95.4,8.4,8.52,0.2,0,0,8.33,13.23,0.2,101.2717,3.287,3.288,3.284,100,0,0,0,49.37,169.8,169.8
"2022-05-25 00:16:00",2951700,2.704666,183.7334,1.842476,0.1074472,2.93,0,1.254,156.3992,2.47058,0.08693293,1.38,0,-999,0,8.4,95.7,8.45,8.54,0.2,0,0,8.33,13.23,0.2,101.2694,3.285,3.288,3.283,100,0,0,0,49.37,169.8,169.8
"2022-05-25 00:17:00",2951701,2.494,183.1332,2.305351,0.08912909,2.72,0,1.241333,160.7338,2.407158,0.1019717,1.43,0,-999,0,8.4,95.9,8.44,8.56,0.2,0,0,8.33,13.23,0.2,101.2727,3.284,3.286,3.283,100,0,0,0,49.37,169.8,169.8
"2022-05-25 00:18:00",2951702,2.65,185.2668,2.174438,0.1282185,2.83,0,1.099333,160.599,2.846548,0.07741375,1.21,0,-999,0,8.39,96.2,8.4,8.52,0.2,0,0,8.32,13.23,0.2,101.2745,3.286,3.286,3.281,100,0,0,0,49.37,169.8,169.8
"2022-05-25 00:19:00",2951703,2.651334,185.2,2.371656,0.1300701,2.92,0,1.045333,162.2666,2.080583,0.1021023,1.28,0,-999,0,8.34,96.3,8.38,8.5,0.2,0,0,8.31,13.23,0.2,101.2756,3.284,3.286,3.283,100,0,0,0,49.37,169.8,169.8
"2022-05-25 00:20:00",2951704,2.741333,184.8668,1.407822,0.1636609,2.96,0,1.134,165.6612,4.916915,0.1391785,1.46,0,-999,0,8.31,96.2,8.36,8.5,0.2,0,0,8.3,13.23,0.2,101.2759,3.286,3.286,3.282,100,0,0,0,49.37,169.8,169.8
"2022-05-25 00:21:00",2951705,2.726667,181.7333,1.236613,0.1164283,2.97,0,1.101333,159.8642,3.440898,0.09597684,1.29,0,-999,0,8.3,96,8.32,8.48,0.2,0,0,8.3,13.24,0.2,101.2781,3.283,3.287,3.283,100,0,0,0,49.37,169.8,169.8
"2022-05-25 00:22:00",2951706,2.858666,181.4668,1.856926,0.1182013,3.04,0,1.081333,156.8693,4.586847,0.1002574,1.27,0,-999,0,8.28,95.7,8.3,8.44,0.2,0,0,8.3,13.23,0.2,101.2783,3.274,3.283,3.274,100,0,0,0,49.37,169.8,169.8
"2022-05-25 00:23:00",2951707,2.546667,180.8666,1.543531,0.105872,2.74,0,1.117333,156.5988,3.945614,0.13334,1.32,0,-999,0,8.2,95.9,8.24,8.39,0.2,0,0,8.3,13.23,0.2,101.28,3.274,3.275,3.273,100,0,0,0,49.37,169.8,169.8
"2022-05-25 00:24:00",2951708,2.443333,180.0667,2.976591,0.1601527,2.74,0,1.168,157.5352,4.469535,0.08772684,1.31,0,-999,0,8.2,95.7,8.19,8.35,0.2,0,0,8.3,13.24,0.2,101.2789,3.275,3.275,3.271,100,0,0,0,49.37,169.8,169.8
"2022-05-25 00:25:00",2951709,2.344666,177.9336,2.434793,0.1195473,2.57,0,1.231333,154.6696,4.465356,0.06141299,1.34,0,-999,0,8.2,95.5,8.18,8.34,0.2,0,0,8.28,13.23,0.2,101.2793,3.274,3.275,3.273,100,0,0,0,49.37,169.8,169.8
"2022-05-25 00:26:00",2951710,2.344666,175.1334,2.390538,0.1029477,2.53,0,1.325333,148.7996,4.117744,0.1262203,1.49,0,-999,0,8.15,95.9,8.17,8.32,0.2,0,0,8.28,13.24,0.2,101.2781,3.275,3.275,3.273,100,0,0,0,49.37,169.8,169.8
"2022-05-25 00:27:00",2951711,2.362667,171.9334,1.913637,0.04682833,2.41,0,1.144667,146.7312,4.056479,0.1222493,1.47,0,-999,0,8.1,96.6,8.17,8.31,0.2,0,0,8.28,13.22,0.2,101.2771,3.273,3.275,3.273,100,0,0,0,49.37,169.8,169.8
"2022-05-25 00:28:00",2951712,2.336667,171.4666,3.180154,0.08874433,2.51,0,1.003333,141.7995,3.409225,0.08299933,1.11,0,-999,0,8.15,96.9,8.2,8.32,0.2,0,0,8.26,13.24,0.2,101.2797,3.273,3.275,3.273,100,0,0,0,49.37,169.8,169.8
"2022-05-25 00:29:00",2951713,2.316667,167.8001,2.226951,0.09449282,2.48,0,1.05,139.5995,2.122567,0.07447596,1.22,0,-999,0,8.13,97,8.19,8.3,0.2,0,0,8.26,13.24,0.2,101.2778,3.273,3.273,3.27,100,0,0,0,49.37,169.8,169.8
"2022-05-25 00:30:00",2951714,2.469333,167.5334,2.186655,0.08119658,2.59,0,1.028666,143.0668,2.234941,0.1148835,1.18,0,-999,0,8.11,96.8,8.2,8.31,0.2,0,0,8.26,13.24,0.2,101.2777,3.273,3.274,3.271,100,0,0,0,49.37,169.8,169.8
"2022-05-25 00:31:00",2951715,2.462,169.2,1.641091,0.06949339,2.58,0,0.9,146.6019,3.979309,0.1317573,1.23,0,-999,0,8.13,96.4,8.23,8.33,0.2,0,0,8.25,13.24,0.2,101.2825,3.273,3.274,3.271,100,0,0,0,49.37,169.8,169.8
"2022-05-25 00:32:00",2951716,2.421333,170.5318,3.738717,0.142308,2.68,0,0.836,150.3327,6.081789,0.08685621,1.02,0,-999,0,8.1,96.4,8.21,8.32,0.2,0,0,8.23,13.24,0.2,101.282,3.273,3.273,3.271,100,0,0,0,49.37,169.8,169.8
"2022-05-25 00:33:00",2951717,2.371333,172.4005,2.601914,0.1325075,2.55,0,0.7706667,155.3156,7.401875,0.1408293,1.02,0,-999,0,8.1,95.9,8.18,8.31,0.2,0,0,8.22,13.23,0.2,101.2839,3.273,3.274,3.271,100,0,0,0,49.37,169.8,169.8
"2022-05-25 00:34:00",2951718,2.362,178.9317,3.713327,0.1498978,2.61,0,0.7073333,165.9045,9.856221,0.1695668,1,0,-999,0,8.1,95.7,8.18,8.31,0.2,0,0,8.21,13.24,0.2,101.2813,3.273,3.273,3.271,100,0,0,0,49.37,169.8,169.8
"2022-05-25 00:35:00",2951719,2.415333,181.0667,1.651853,0.08460627,2.53,0,0.8273333,169.9284,7.313796,0.1083492,0.97,0,-999,0,8.18,95.7,8.22,8.34,0.2,0,0,8.19,13.24,0.2,101.2838,3.274,3.274,3.271,100,0,0,0,49.37,169.8,169.8
"2022-05-25 00:36:00",2951720,2.423333,184.0667,0.8533138,0.09624043,2.57,0,0.9693334,170.2721,5.660417,0.1173864,1.12,0,-999,0,8.2,95.9,8.24,8.36,0.2,0,0,8.18,13.23,0.2,101.2836,3.271,3.274,3.27,100,0,0,0,49.37,169.8,169.8
"2022-05-25 00:37:00",2951721,2.448,186.3999,1.356483,0.06584828,2.58,0,1.001333,172.2003,2.925305,0.06499916,1.11,0,-999,0,8.21,95.6,8.3,8.39,0.2,0,0,8.17,13.24,0.2,101.2863,3.272,3.273,3.27,100,0,0,0,49.37,169.8,169.8
"2022-05-25 00:38:00",2951722,2.405333,189.0667,1.569129,0.1287823,2.64,0,0.9680001,175.0668,2.434874,0.06958926,1.06,0,-999,0,8.25,95.6,8.32,8.41,0.2,0,0,8.17,13.25,0.2,101.2858,3.274,3.274,3.271,100,0,0,0,49.37,169.8,169.8
"2022-05-25 00:39:00",2951723,2.276,188.3333,1.074975,0.0516139,2.37,0,1.006,181.1976,4.576635,0.1076909,1.12,0,-999,0,8.23,95.5,8.29,8.39,0.2,0,0,8.15,13.24,0.2,101.2839,3.272,3.273,3.271,100,0,0,0,49.37,169.8,169.8
"2022-05-25 00:40:00",2951724,2.39,189.5333,1.359941,0.1018496,2.65,0,1.012667,176.5999,3.322096,0.07187644,1.11,0,-999,0,8.2,95.7,8.24,8.36,0.2,0,0,8.15,13.24,0.2,101.2845,3.271,3.274,3.271,100,0,0,0,49.37,169.8,169.8
"2022-05-25 00:41:00",2951725,2.402,189.3334,1.192374,0.08059777,2.57,0,0.8613335,173.9337,2.885158,0.1002574,1.02,0,-999,0,8.16,96.1,8.19,8.31,0.2,0,0,8.13,13.23,0.2,101.2877,3.272,3.274,3.271,100,0,0,0,49.37,169.8,169.8
"2022-05-25 00:42:00",2951726,2.460667,188.9999,1.460777,0.0964342,2.66,0,0.7086668,170.47,4.673448,0.08196475,0.83,0,-999,0,8.15,96,8.19,8.31,0.2,0,0,8.13,13.25,0.2,101.2854,3.272,3.273,3.272,100,0,0,0,49.37,169.8,169.8
"2022-05-25 00:43:00",2951727,2.313333,190.2672,2.461881,0.1542581,2.54,0,0.6039999,173.5325,6.756835,0.1094714,0.89,0,-999,0,8.13,96.3,8.18,8.29,0.2,0,0,8.12,13.24,0.2,101.2857,3.273,3.273,3.269,100,0,0,0,49.37,169.8,169.8
"2022-05-25 00:44:00",2951728,2.21,194.8669,1.857032,0.1072691,2.38,0,0.524,186.0719,5.307056,0.05642695,0.61,0,-999,0,8.17,96.7,8.18,8.29,0.2,0,0,8.1,13.23,0.2,101.2858,3.273,3.273,3.271,100,0,0,0,49.37,169.8,169.8
"2022-05-25 00:45:00",2951729,2.159333,197.0667,1.123668,0.0787796,2.33,0,0.524,188.5454,7.520293,0.0868562,0.71,0,-999,0,8.2,97.3,8.19,8.28,0.2,0,0,8.08,13.25,0.2,101.289,3.272,3.274,3.272,100,0,0,0,49.37,169.8,169.8
"2022-05-25 00:46:00",2951730,2.222667,199.2666,1.611113,0.1176133,2.43,0,0.5773334,194.3414,7.378666,0.04312255,0.64,0,-999,0,8.2,97.9,8.19,8.27,0.2,0,0,8.08,13.24,0.2,101.2883,3.274,3.274,3.269,100,0,0,0,49.37,169.8,169.8
"2022-05-25 00:47:00",2951731,2.156667,200.9334,1.651912,0.07381663,2.27,0,0.6833333,186.4027,6.841552,0.1010391,0.85,0,-999,0,8.2,97.6,8.21,8.29,0.2,0,0,8.06,13.24,0.2,101.2847,3.273,3.274,3.271,100,0,0,0,49.37,169.8,169.8
"2022-05-25 00:48:00",2951732,2.027333,202.6666,1.13502,0.08449586,2.21,0,0.5506667,183.8006,3.918276,0.07122422,0.7,0,-999,0,8.2,96.7,8.2,8.29,0.2,0,0,8.04,13.25,0.2,101.2876,3.274,3.275,3.273,100,0,0,0,49.37,169.8,169.8
"2022-05-25 00:49:00",2951733,1.932,204.4667,1.667777,0.06002221,2.04,0,0.598,169.2013,4.148774,0.06057503,0.7,0,-999,0,8.2,95.9,8.19,8.28,0.2,0,0,8.03,13.24,0.2,101.2905,3.275,3.275,3.273,100,0,0,0,49.37,169.8,169.8
"2022-05-25 00:50:00",2951734,1.874667,201.7999,2.227083,0.09666896,2.04,0,0.6953334,173.7291,5.383157,0.02753584,0.74,0,-999,0,8.17,95.3,8.18,8.27,0.2,0,0,8.01,13.24,0.2,101.2897,3.274,3.275,3.271,100,0,0,0,49.37,169.8,169.8
"2022-05-25 00:51:00",2951735,1.722,202.8001,2.925372,0.06389574,1.85,0,0.7539999,160.0013,4.379616,0.05161395,0.84,0,-999,0,8.1,95.2,8.16,8.27,0.2,0,0,7.993,13.24,0.2,101.289,3.274,3.275,3.273,100,0,0,0,49.37,169.8,169.8
"2022-05-25 00:52:00",2951736,1.780667,201.133,2.604023,0.06005182,1.86,0,0.8819999,164.9337,2.954113,0.04548993,0.95,0,-999,0,8.1,95.1,8.18,8.27,0.2,0,0,7.973,13.24,0.2,101.2888,3.273,3.276,3.273,100,0,0,0,49.37,169.8,169.8
"2022-05-25 00:53:00",2951737,1.678667,200.467,4.224314,0.07508811,1.83,0,0.9326666,164.2032,5.728469,0.04567517,1.03,0,-999,0,8.18,95.3,8.18,8.3,0.2,0,0,7.951,13.23,0.2,101.291,3.273,3.275,3.272,100,0,0,0,49.37,169.8,169.8
"2022-05-25 00:54:00",2951738,1.625333,198.1985,3.165631,0.1080658,1.89,0,0.98,160.6685,3.77037,0.0444222,1.06,0,-999,0,8.2,95.7,8.19,8.34,0.2,0,0,7.946,13.22,0.2,101.2871,3.274,3.274,3.271,100,0,0,0,49.37,169.8,169.8
"2022-05-25 00:55:00",2951739,1.568,200.8663,3.159057,0.1219399,1.82,0,0.9913334,157.6674,3.19627,0.03844766,1.08,0,-999,0,8.2,96,8.19,8.35,0.2,0,0,7.927,13.24,0.2,101.2913,3.275,3.275,3.271,100,0,0,0,49.37,169.8,169.8
"2022-05-25 00:56:00",2951740,1.481333,198.8663,3.073324,0.07982203,1.64,0,0.9766666,159.2671,4.170024,0.05699903,1.09,0,-999,0,8.21,95.8,8.24,8.37,0.2,0,0,7.909,13.24,0.2,101.292,3.275,3.275,3.271,100,0,0,0,49.37,169.8,169.8
"2022-05-25 00:57:00",2951741,1.672,199.3871,6.707197,0.1594658,1.95,0,0.9193333,162.2638,3.232631,0.06707875,1.08,0,-999,0,8.2,96.1,8.24,8.38,0.2,0,0,7.905,13.22,0.2,101.2915,3.273,3.275,3.272,100,0,0,0,49.37,169.8,169.8
"2022-05-25 00:58:00",2951742,1.702,196.4004,3.028338,0.07054078,1.85,0,0.864,154.7338,3.234238,0.03536476,0.91,0,-999,0,8.21,96.9,8.24,8.37,0.2,0,0,7.905,13.24,0.2,101.2972,3.275,3.275,3.273,100,0,0,0,49.37,169.8,169.8
"2022-05-25 00:59:00",2951743,1.845333,193.533,1.927351,0.09646185,2.03,0,0.8793334,157.3341,2.572909,0.05384753,0.98,0,-999,0,8.21,96.9,8.26,8.39,0.2,0,0,7.893,13.23,0.2,101.2976,3.271,3.275,3.271,100,0,0,0,49.37,169.8,169.8
"2022-05-25 01:00:00",2951744,1.942,190.8002,2.785436,0.07807691,2.13,0,0.784,154.9321,2.998149,0.03912374,0.85,0,-999,0,8.21,96.6,8.25,8.38,0.2,0,0,7.882,13.24,0.2,101.2971,3.274,3.274,3.271,100,0,0,0,49.37,169.8,169.8
"2022-05-25 01:01:00",2951745,2.055333,195.3994,4.14335,0.1285232,2.31,0,0.7539999,161.0009,3.521125,0.06945501,0.87,0,-999,0,8.2,96.3,8.23,8.36,0.2,0,0,7.881,13.24,0.2,101.2987,3.273,3.274,3.271,100,0,0,0,49.37,169.8,169.8
"2022-05-25 01:02:00",2951746,2.083333,195.9332,1.569129,0.1068124,2.26,0,0.7159999,164.2347,7.577361,0.06590902,0.82,0,-999,0,8.2,96.1,8.2,8.36,0.2,0,0,7.862,13.23,0.2,101.2976,3.273,3.274,3.271,100,0,0,0,49.37,169.8,169.8
"2022-05-25 01:03:00",2951747,2.138667,195.8,2.34357,0.07455351,2.3,0,0.79,166.267,3.374816,0.08640988,0.93,0,-999,0,8.19,95.9,8.16,8.3,0.2,0,0,7.862,13.24,0.2,101.3028,3.273,3.274,3.271,100,0,0,0,49.37,169.8,169.8
"2022-05-25 01:04:00",2951748,1.995333,196.7364,4.152395,0.162926,2.28,0,0.6573333,161.1993,4.429429,0.07575985,0.8,0,-999,0,8.1,96.1,8.1,8.25,0.2,0,0,7.848,13.24,0.2,101.2987,3.274,3.274,3.27,100,0,0,0,49.37,169.8,169.8
"2022-05-25 01:05:00",2951749,1.898667,192.8668,2.894926,0.1240358,2.11,0,0.434,160.0002,6.290329,0.07227723,0.6,0,-999,0,8.1,96.6,8.06,8.21,0.2,0,0,7.839,13.23,0.2,101.302,3.269,3.275,3.269,100,0,0,0,49.37,169.8,169.8
"2022-05-25 01:06:00",2951750,1.848667,192.5336,3.221418,0.1064498,2.03,0,0.38,147.8947,9.312249,0.07411702,0.58,0,-999,0,8.01,96.9,8.02,8.19,0.2,0,0,7.829,13.24,0.2,101.301,3.271,3.273,3.271,100,0,0,0,49.37,169.8,169.8
"2022-05-25 01:07:00",2951751,1.69,188.6001,1.854711,0.09287984,1.86,0,0.424,136.9993,5.315065,0.06183849,0.56,0,-999,0,8,97,8.01,8.14,0.2,0,0,7.817,13.24,0.2,101.2996,3.273,3.273,3.27,100,0,0,0,49.37,169.8,169.8
"2022-05-25 01:08:00",2951752,1.728,187.6001,2.153985,0.135951,1.93,0,0.5713333,136.6004,3.824951,0.06141299,0.7,0,-999,0,8,96.7,7.993,8.1,0.2,0,0,7.809,13.24,0.2,101.3029,3.271,3.274,3.271,100,0,0,0,49.37,169.8,169.8
"2022-05-25 01:09:00",2951753,1.874,187.4,1.743482,0.1132431,2.14,0,0.6513334,135.6149,5.923755,0.1155201,0.79,0,-999,0,7.92,96.5,7.939,8.05,0.2,0,0,7.794,13.24,0.2,101.3032,3.273,3.274,3.273,100,0,0,0,49.37,169.8,169.8
"2022-05-25 01:10:00",2951754,1.996,185.9317,3.212884,0.08276872,2.17,0,0.9493333,141.7996,3.636347,0.09461971,1.12,0,-999,0,7.9,96,7.933,8.05,0.2,0,0,7.775,13.25,0.2,101.3014,3.274,3.274,3.273,100,0,0,0,49.37,169.8,169.8
"2022-05-25 01:11:00",2951755,2.073333,182.3334,2.520708,0.06808491,2.22,0,1.018,142.3332,2.913353,0.04134408,1.1,0,-999,0,7.9,95.5,7.935,8.05,0.2,0,0,7.765,13.25,0.2,101.2974,3.275,3.275,3.273,100,0,0,0,49.37,169.8,169.8
"2022-05-25 01:12:00",2951756,2.144666,180.2677,2.743465,0.1599945,2.49,0,1.102667,140.7336,3.108058,0.08683062,1.23,0,-999,0,7.9,95.4,7.939,8.05,0.2,0,0,7.751,13.25,0.2,101.3008,3.275,3.275,3.273,100,0,0,0,49.37,169.8,169.8
"2022-05-25 01:13:00",2951757,2.349334,179.8,2.879411,0.1161302,2.63,0,1.23,144.398,4.126869,0.1074554,1.4,0,-999,0,7.9,95.3,7.962,8.07,0.2,0,0,7.729,13.24,0.2,101.3062,3.273,3.275,3.273,100,0,0,0,49.37,169.8,169.8
"2022-05-25 01:14:00",2951758,2.427334,179.4667,2.824497,0.1310199,2.71,0,1.136667,148.2668,2.694378,0.084748,1.29,0,-999,0,7.9,95.6,7.937,8.05,0.2,0,0,7.729,13.24,0.2,101.3035,3.273,3.275,3.273,100,0,0,0,49.37,169.8,169.8
"2022-05-25 01:15:00",2951759,2.602667,181.6672,2.843482,0.2444168,3.11,0,1.098667,148.3972,5.472268,0.1091706,1.32,0,-999,0,7.9,95.8,7.898,8.03,0.2,0,0,7.727,13.25,0.2,101.3052,3.275,3.275,3.273,100,0,0,0,49.37,169.8,169.8
"2022-05-25 01:16:00",2951760,2.58,184.9995,2.7564,0.1561196,2.84,0,1.217333,148.2694,4.71041,0.1008938,1.37,0,-999,0,7.9,95.6,7.908,8.03,0.2,0,0,7.714,13.24,0.2,101.3036,3.273,3.275,3.273,100,0,0,0,49.37,169.8,169.8
"2022-05-25 01:17:00",2951761,2.361333,183.7328,2.488792,0.1030771,2.6,0,1.386667,154.1336,2.894722,0.1068124,1.58,0,-999,0,7.913,95.4,7.98,8.07,0.2,0,0,7.706,13.23,0.2,101.3035,3.271,3.274,3.271,100,0,0,0,49.37,169.8,169.8
"2022-05-25 01:18:00",2951762,2.365333,184.3339,2.412524,0.1251062,2.6,0,1.381333,158.7988,3.207294,0.1152312,1.56,0,-999,0,8,95.3,8.03,8.14,0.2,0,0,7.703,13.23,0.2,101.3032,3.271,3.273,3.271,100,0,0,0,49.37,169.8,169.8
"2022-05-25 01:19:00",2951763,2.497333,183.8667,2.390497,0.1072981,2.64,0,1.353333,161.1348,5.01578,0.1412641,1.56,0,-999,0,8,95.6,8.04,8.15,0.2,0,0,7.686,13.24,0.2,101.3082,3.271,3.273,3.27,100,0,0,0,49.37,169.8,169.8
"2022-05-25 01:20:00",2951764,2.564,182.2,1.720476,0.06509481,2.7,0,1.36,159.4663,2.246655,0.1102724,1.52,0,-999,0,8,96.1,8.02,8.15,0.2,0,0,7.686,13.23,0.2,101.3097,3.271,3.273,3.269,100,0,0,0,49.37,169.8,169.8
"2022-05-25 01:21:00",2951765,2.558,180.7995,3.269849,0.07467262,2.69,0,1.347333,152.466,4.03074,0.148704,1.6,0,-999,0,8,96.5,8.02,8.14,0.2,0,0,7.686,13.23,0.2,101.307,3.271,3.272,3.269,100,0,0,0,49.37,169.8,169.8
"2022-05-25 01:22:00",2951766,2.544,177.5336,2.216901,0.06906999,2.73,0,1.18,150.7327,4.249167,0.1216004,1.37,0,-999,0,8.01,96.9,8.07,8.17,0.2,0,0,7.686,13.24,0.2,101.3027,3.27,3.274,3.27,100,0,0,0,49.37,169.8,169.8
"2022-05-25 01:23:00",2951767,2.657333,174.8672,3.137632,0.0732545,2.79,0,1.306,143.0662,2.998901,0.08860398,1.53,0,-999,0,8,97.2,8.05,8.17,0.2,0,0,7.686,13.23,0.2,101.3077,3.269,3.271,3.267,100,0,0,0,49.37,169.8,169.8
"2022-05-25 01:24:00",2951768,2.682667,171.9999,2.06542,0.08759502,2.84,0,1.396667,144.6646,4.124655,0.1495623,1.62,0,-999,0,8.02,96.8,8.1,8.19,0.2,0,0,7.684,13.23,0.2,101.305,3.269,3.27,3.267,100,0,0,0,49.37,169.8,169.8
"2022-05-25 01:25:00",2951769,2.598,171.8666,3.221448,0.173674,2.9,0,1.46,143.5334,1.745838,0.127122,1.75,0,-999,0,8.1,96.5,8.11,8.21,0.2,0,0,7.666,13.25,0.2,101.306,3.269,3.27,3.267,100,0,0,0,49.37,169.8,169.8
"2022-05-25 01:26:00",2951770,2.719333,176.2013,3.330233,0.2154829,3.01,0,1.670667,150.2635,4.136685,0.1574999,1.97,0,-999,0,8.1,96.3,8.13,8.22,0.2,0,0,7.663,13.24,0.2,101.3072,3.267,3.269,3.266,100,0,0,0,49.37,169.8,169.8
"2022-05-25 01:27:00",2951771,2.819333,180.3333,2.494297,0.1650239,3.21,0,1.511333,153.6662,3.299108,0.1467364,1.85,0,-999,0,8.17,95.7,8.2,8.29,0.2,0,0,7.663,13.25,0.2,101.3077,3.269,3.269,3.267,100,0,0,0,49.37,169.8,169.8
"2022-05-25 01:28:00",2951772,2.619334,181.7341,2.908504,0.1372815,2.79,0,1.355333,157.5334,2.21699,0.1274816,1.58,0,-999,0,8.2,95.9,8.19,8.3,0.2,0,0,7.663,13.23,0.2,101.3096,3.266,3.269,3.266,100,0,0,0,49.37,169.8,169.8
"2022-05-25 01:29:00",2951773,2.351333,179.9346,5.089664,0.1687154,2.59,0,1.115333,156.3981,4.012626,0.07787739,1.28,0,-999,0,8.16,96.3,8.16,8.27,0.2,0,0,7.663,13.24,0.2,101.307,3.267,3.267,3.265,100,0,0,0,49.37,169.8,169.8
"2022-05-25 01:30:00",2951774,2.284667,177.203,4.776495,0.2228263,2.62,0,1.278,153.3985,4.158705,0.126185,1.47,0,-999,0,8.07,96.6,8.06,8.2,0.2,0,0,7.663,13.24,0.2,101.3103,3.264,3.267,3.262,100,0,0,0,49.37,169.8,169.8
"2022-05-25 01:31:00",2951775,2.564667,177.3978,4.854163,0.2384916,2.93,0,1.346667,159.9333,3.604259,0.125468,1.57,0,-999,0,8.07,96.1,8.07,8.2,0.2,0,0,7.663,13.23,0.2,101.3068,3.265,3.266,3.262,100,0,0,0,49.37,169.8,169.8
"2022-05-25 01:32:00",2951776,2.776667,182.663,4.188308,0.2134687,3.2,0,1.442,155.0071,5.594279,0.2077563,1.82,0,-999,0,8.09,95.7,8.07,8.21,0.2,0,0,7.663,13.23,0.2,101.3075,3.263,3.266,3.263,100,0,0,0,49.37,169.8,169.8
"2022-05-25 01:33:00",2951777,2.706666,181.9351,3.491666,0.1764338,2.91,0,1.404,164.1304,4.907865,0.1364698,1.76,0,-999,0,8.09,95.7,8.1,8.21,0.2,0,0,7.663,13.23,0.2,101.3084,3.263,3.264,3.261,100,0,0,0,49.37,169.8,169.8
"2022-05-25 01:34:00",2951778,2.582,184.9996,3.306235,0.1379952,2.8,0,1.189333,169.664,4.711079,0.1212417,1.37,0,-999,0,8.09,96,8.08,8.21,0.2,0,0,7.663,13.24,0.2,101.308,3.262,3.263,3.261,100,0,0,0,49.37,169.8,169.8
"2022-05-25 01:35:00",2951779,2.845334,187.602,4.542533,0.3245277,3.47,0,1.613333,176.9949,6.053252,0.3008581,2.2,0,-999,0,8,96.8,8.04,8.17,0.2,0,0,7.663,13.24,0.2,101.3102,3.263,3.263,3.262,100,0,0,0,49.37,169.8,169.8
"2022-05-25 01:36:00",2951780,2.572,191.5292,5.510082,0.1519737,2.82,0,1.44,174.7338,4.023914,0.1369672,1.64,0,-999,0,8.07,96.5,8.11,8.21,0.2,0,0,7.663,13.24,0.2,101.3123,3.262,3.263,3.261,100,0,0,0,49.37,169.8,169.8
"2022-05-25 01:37:00",2951781,2.775333,192.7322,3.394867,0.3308548,3.76,0,1.303333,179.537,5.249496,0.1052405,1.52,0,-999,0,8.11,96.6,8.17,8.25,0.2,0,0,7.663,13.24,0.2,101.311,3.262,3.263,3.261,100,0,0,0,49.37,169.8,169.8
"2022-05-25 01:38:00",2951782,2.719334,191.8668,2.753306,0.1397362,2.9,0,1.336667,178.334,6.443365,0.09428091,1.48,0,-999,0,8.15,96.3,8.17,8.26,0.2,0,0,7.663,13.22,0.2,101.3103,3.259,3.261,3.256,100,0,0,0,49.37,169.8,169.8
"2022-05-25 01:39:00",2951783,2.648667,193.8665,2.499437,0.2074566,3.21,0,1.160667,181.4652,4.514406,0.1150343,1.37,0,-999,0,8.11,96,8.16,8.25,0.2,0,0,7.663,13.24,0.2,101.3087,3.256,3.261,3.256,100,0,0,0,49.37,169.8,169.8
"2022-05-25 01:40:00",2951784,2.638667,190.4002,2.751704,0.2746844,3.37,0,1.18,174.9336,3.472594,0.1025671,1.41,0,-999,0,8.1,95.8,8.14,8.23,0.2,0,0,7.663,13.23,0.2,101.3082,3.257,3.261,3.256,100,0,0,0,49.37,169.8,169.8
"2022-05-25 01:41:00",2951785,2.869333,189.8672,3.116437,0.1637261,3.27,0,1.232,170.3184,6.281423,0.1012719,1.39,0,-999,0,8.1,95.9,8.13,8.22,0.2,0,0,7.663,13.25,0.2,101.31,3.256,3.26,3.254,100,0,0,0,49.37,169.8,169.8
"2022-05-25 01:42:00",2951786,2.870667,186.3951,5.094902,0.2472911,3.23,0,1.261333,170.9323,3.957167,0.1970741,1.81,0,-999,0,8.1,96,8.1,8.21,0.2,0,0,7.663,13.24,0.2,101.3072,3.254,3.259,3.254,100,0,0,0,49.37,169.8,169.8
"2022-05-25 01:43:00",2951787,2.961334,187.4,1.854763,0.2386313,3.42,0,1.410667,174.0008,5.147803,0.1283467,1.62,0,-999,0,8.1,96,8.1,8.21,0.2,0,0,7.663,13.24,0.2,101.3068,3.256,3.257,3.254,100,0,0,0,49.37,169.8,169.8
"2022-05-25 01:44:00",2951788,3.251333,188.5267,5.481926,0.3580292,4.38,0,1.528667,176.7793,7.426563,0.2070384,2.21,0,-999,0,8.1,95.8,8.11,8.21,0.2,0,0,7.663,13.24,0.2,101.3045,3.256,3.256,3.254,100,0,0,0,49.37,169.8,169.8
"2022-05-25 01:45:00",2951789,3.239333,187.3977,3.627784,0.1983756,3.63,0,1.673333,177.8673,4.192105,0.3601049,2.45,0,-999,0,8.1,95.6,8.11,8.21,0.2,0,0,7.663,13.24,0.2,101.3062,3.256,3.256,3.253,100,0,0,0,49.37,169.8,169.8
"2022-05-25 01:46:00",2951790,3.114,186.7998,1.557483,0.1961904,3.6,0,1.492,173.59,6.872736,0.1428379,1.79,0,-999,0,8.1,95.7,8.14,8.23,0.2,0,0,7.663,13.24,0.2,101.3054,3.252,3.256,3.252,100,0,0,0,49.37,169.8,169.8
"2022-05-25 01:47:00",2951791,3.214667,186.5329,3.159088,0.2004617,3.65,0,1.502667,175.2732,6.759746,0.2749416,2.19,0,-999,0,8.1,95.8,8.14,8.23,0.2,0,0,7.665,13.24,0.2,101.3072,3.252,3.252,3.25,100,0,0,0,49.37,169.8,169.8
"2022-05-25 01:48:00",2951792,3.304666,188.9312,4.581122,0.3436639,3.92,0,1.466667,179.0611,6.197002,0.2534999,1.81,0,-999,0,8.1,95.9,8.11,8.21,0.2,0,0,7.668,13.24,0.2,101.3094,3.25,3.252,3.249,100,0,0,0,49.37,169.8,169.8